Flag for Austria Weather past 2 weeks in Hollabrunn, Lower Austria, Austria

Now
65 °F

Mild.


Feels Like: 65 °F
Forecast: 55 / 82 °F
Wind: 1 mph from South

Location: Retz

Current Time: Jun 30, 2015 at 10:34:01 AM

Latest Report: Jun 30, 2015 at 9:00 AM


Visibility: N/A

Pressure: 30.16 "Hg

Humidity: 67%

Dew point: 54 °F

Location of HollabrunnLocation

Historic Weather in Hollabrunn — Graph

°F

Hollabrunn temperature yesterday

Maximum temperature yesterday: 77 °F (at 3:00 PM)
Minimum temperature yesterday: 56 °F (at 4:00 AM)
Average temperature yesterday: 66 °F

Past Weeks' High & Low Weather Summary

 TemperatureHumidityPressure
High77 °F (Jun 29, 3:00 PM)99% (Jun 23, 3:00 AM)30.24 "Hg (Jun 23, 3:00 AM)
Low48 °F (Jun 18, 5:00 AM)35% (Jun 28, 5:00 PM)29.72 "Hg (Jun 23, 4:00 AM)
Average61 °F65%30.03 "Hg
* Reported Jun 15 9:00 AM — Jun 30 9:00 AM, Hollabrunn, Weather by CustomWeather, © 2015

Note: Actual official high and low records may vary slightly from our data, if they occured in-between our weather recording intervals... More about our weather records

Advertising

Hollabrunn weather history for previous 24 hours

 ConditionsComfort  
Time TempWeatherWind HumidityBarometerVisibility
9:00 AM
Tue, Jun 30
65 °FMild.1 mph67%30.16 "HgN/A
8:00 AM61 °FPassing clouds.1 mph77%30.17 "Hg12 mi
7:00 AM60 °FScattered clouds.1 mph77%30.16 "Hg11 mi
6:00 AM60 °FCool.1 mph75%30.16 "HgN/A
5:00 AM57 °FCool.2 mph82%30.16 "HgN/A
4:00 AM62 °FMild.1 mph68%30.14 "HgN/A
3:00 AM64 °FMild.1 mph66%30.15 "HgN/A
2:00 AM64 °FMild.1 mph65%30.16 "HgN/A
1:00 AM65 °FMild.1 mph64%30.16 "HgN/A
12:00 AM65 °FMild.1 mph64%30.16 "HgN/A
10:00 PM
Mon, Jun 29
67 °FMild.3 mph60%30.15 "HgN/A
9:00 PM68 °FMild.2 mph54%30.13 "HgN/A
8:00 PM74 °FPassing clouds.2 mph45%30.10 "Hg19 mi
7:00 PM76 °FMild.2 mph40%30.09 "HgN/A
6:00 PM76 °FMild.3 mph41%30.09 "HgN/A
5:00 PM76 °FMild.1 mph40%30.10 "HgN/A
4:00 PM76 °FMild.2 mph40%30.10 "HgN/A
3:00 PM77 °FPleasantly warm.3 mph38%30.11 "HgN/A
2:00 PM72 °FScattered clouds.2 mph45%30.14 "Hg17 mi
1:00 PM70 °FMild.2 mph49%30.16 "HgN/A
12:00 PM67 °FMild.2 mph51%30.16 "HgN/A
11:00 AM67 °FMild.2 mph55%30.17 "HgN/A
10:00 AM64 °FMild.2 mph61%30.17 "HgN/A
Weather by CustomWeather, © 2015

See weather overviewHow to use our weather pages